Location: Newark
(33.6439°N, 114.9881°W)
Time: 16:37:02
(UTC+00:00)

A-11 Canister half - Pass Details

Date: 01 September 2019
Orbit: 1527 x 1682 km, 47.3° (Epoch: 17 October)

Event Time Altitude Azimuth Distance (km) Brightness Sun altitude
Rises 14:50:53 0° 207° (SSW) 4,718 11.3 19.3°
Reaches altitude 10° 14:54:05 10° 201° (SSW) 3,756 10.9 19.9°
Maximum altitude 15:03:00 46° 131° (SE) 2,064 10.7 21.8°
Drops below altitude 10° 15:12:12 10° 63° (ENE) 3,883 12.2 23.7°
Sets 15:15:33 0° 58° (ENE) 4,891 12.4 24.4°
